N250GB KLAX-KSEZ

Flight info

Callsign N250GB
Flight time 0h 53m
Altitude 45000
Route DOTSS2 CLEEE PKE DRK
Aircraft C700/M-VGDW/C

Departure

Time 2026-05-06 21:52
Airport Los Angeles International Airport (KLAX)

Arrival

Time 2026-05-06 22:45
Airport Sedona Airport (KSEZ)
Time Latitude Longitude Altitude Speed Heading
2026-05-06 21:34 33.93376 -118.39915 120 ft 0 kts 23°
2026-05-06 21:48 33.93377 -118.39915 120 ft 1 kts 29°
2026-05-06 21:48 33.93393 -118.39873 119 ft 10 kts 83°
2026-05-06 21:48 33.93463 -118.39792 120 ft 8 kts 56°
2026-05-06 21:48 33.93464 -118.39734 120 ft 12 kts 85°
2026-05-06 21:49 33.93480 -118.39580 119 ft 25 kts 83°
2026-05-06 21:49 33.93503 -118.39354 120 ft 29 kts 83°
2026-05-06 21:49 33.93529 -118.39097 120 ft 32 kts 83°
2026-05-06 21:49 33.93557 -118.38822 120 ft 34 kts 83°
2026-05-06 21:50 33.93586 -118.38545 120 ft 32 kts 83°
2026-05-06 21:50 33.93607 -118.38339 120 ft 8 kts 81°
2026-05-06 21:50 33.93639 -118.38283 120 ft 11 kts 24°
2026-05-06 21:50 33.93729 -118.38319 120 ft 15 kts 294°
2026-05-06 21:51 33.93730 -118.38351 120 ft 0 kts 263°
2026-05-06 21:51 33.93726 -118.38381 120 ft 21 kts 262°
2026-05-06 21:51 33.93676 -118.38800 118 ft 79 kts 262°
2026-05-06 21:51 33.93597 -118.39692 134 ft 139 kts 262°
2026-05-06 21:52 33.93450 -118.41027 741 ft 177 kts 259°
2026-05-06 21:52 33.93302 -118.42552 1943 ft 195 kts 262°
2026-05-06 21:52 33.93109 -118.44284 2944 ft 232 kts 263°
2026-05-06 21:52 33.92492 -118.46366 3256 ft 279 kts 233°
2026-05-06 21:53 33.91316 -118.48123 4281 ft 272 kts 236°
2026-05-06 21:53 33.90200 -118.49974 5742 ft 277 kts 233°
2026-05-06 21:53 33.88977 -118.51801 7130 ft 285 kts 232°
2026-05-06 21:53 33.87579 -118.53529 8459 ft 293 kts 217°
2026-05-06 21:54 33.85781 -118.54758 9761 ft 302 kts 200°
2026-05-06 21:54 33.83705 -118.55390 10771 ft 319 kts 184°
2026-05-06 21:54 33.81442 -118.55241 11781 ft 330 kts 166°
2026-05-06 21:54 33.79185 -118.54642 13162 ft 336 kts 164°
2026-05-06 21:55 33.76872 -118.54019 14388 ft 344 kts 164°
2026-05-06 21:55 33.74527 -118.53292 15512 ft 350 kts 156°
2026-05-06 21:55 33.72346 -118.51983 16657 ft 352 kts 144°
2026-05-06 21:55 33.70422 -118.50164 17787 ft 353 kts 131°
2026-05-06 21:56 33.68875 -118.47935 18820 ft 354 kts 119°
2026-05-06 21:56 33.67727 -118.45326 19812 ft 354 kts 107°
2026-05-06 21:56 33.66900 -118.42516 20773 ft 358 kts 104°
2026-05-06 21:56 33.66055 -118.39675 21685 ft 364 kts 105°
2026-05-06 21:57 33.65196 -118.36790 22584 ft 369 kts 104°
2026-05-06 21:57 33.64613 -118.33810 23473 ft 368 kts 93°
2026-05-06 21:57 33.64455 -118.30740 24287 ft 368 kts 85°
2026-05-06 21:57 33.64478 -118.27650 25131 ft 371 kts 85°
2026-05-06 21:58 33.64467 -118.24543 25938 ft 374 kts 86°
2026-05-06 21:58 33.64461 -118.21406 26706 ft 378 kts 85°
2026-05-06 21:58 33.64467 -118.18241 27472 ft 381 kts 85°
2026-05-06 21:58 33.64471 -118.15041 28211 ft 384 kts 85°
2026-05-06 21:59 33.64468 -118.11824 28963 ft 388 kts 85°
2026-05-06 21:59 33.64465 -118.08611 29711 ft 391 kts 85°
2026-05-06 21:59 33.64463 -118.05322 30411 ft 395 kts 85°
2026-05-06 21:59 33.64460 -118.02014 31046 ft 398 kts 85°
2026-05-06 22:00 33.64455 -117.98684 31641 ft 401 kts 85°
2026-05-06 22:00 33.64449 -117.95318 32240 ft 404 kts 85°
2026-05-06 22:00 33.64443 -117.91931 32812 ft 407 kts 85°
2026-05-06 22:00 33.64436 -117.88526 33382 ft 410 kts 85°
2026-05-06 22:01 33.64426 -117.85107 34165 ft 406 kts 85°
2026-05-06 22:01 33.64423 -117.81722 34787 ft 404 kts 84°
2026-05-06 22:01 33.64684 -117.78385 35306 ft 399 kts 76°
2026-05-06 22:01 33.65253 -117.75184 35849 ft 396 kts 72°
2026-05-06 22:02 33.65885 -117.71963 36343 ft 396 kts 73°
2026-05-06 22:02 33.66493 -117.68740 36808 ft 396 kts 73°
2026-05-06 22:02 33.67107 -117.65522 37256 ft 396 kts 73°
2026-05-06 22:02 33.67732 -117.62298 37714 ft 395 kts 73°
2026-05-06 22:03 33.68350 -117.59092 38118 ft 395 kts 73°
2026-05-06 22:03 33.68962 -117.55880 38468 ft 395 kts 73°
2026-05-06 22:03 33.69579 -117.52653 38779 ft 396 kts 73°
2026-05-06 22:03 33.70197 -117.49420 39012 ft 398 kts 73°
2026-05-06 22:04 33.70815 -117.46182 39278 ft 398 kts 73°
2026-05-06 22:04 33.71426 -117.42970 39487 ft 400 kts 73°
2026-05-06 22:04 33.72046 -117.39704 39700 ft 402 kts 73°
2026-05-06 22:04 33.72670 -117.36418 39847 ft 404 kts 73°
2026-05-06 22:05 33.73294 -117.33129 40061 ft 405 kts 74°
2026-05-06 22:05 33.73921 -117.29817 40249 ft 406 kts 74°
2026-05-06 22:05 33.74547 -117.26501 40459 ft 408 kts 74°
2026-05-06 22:05 33.75016 -117.23120 40620 ft 413 kts 82°
2026-05-06 22:06 33.75070 -117.19643 40801 ft 417 kts 88°
2026-05-06 22:06 33.74986 -117.16155 40998 ft 419 kts 88°
2026-05-06 22:06 33.74923 -117.12646 41185 ft 420 kts 88°
2026-05-06 22:06 33.74859 -117.09167 41314 ft 423 kts 88°
2026-05-06 22:07 33.74783 -117.05632 41475 ft 424 kts 88°
2026-05-06 22:07 33.74704 -117.02096 41650 ft 425 kts 88°
2026-05-06 22:07 33.74630 -116.98535 41826 ft 426 kts 88°
2026-05-06 22:07 33.74555 -116.94956 41954 ft 429 kts 89°
2026-05-06 22:08 33.74476 -116.91365 42113 ft 430 kts 89°
2026-05-06 22:08 33.74394 -116.87771 42273 ft 431 kts 89°
2026-05-06 22:08 33.74314 -116.84167 42432 ft 432 kts 89°
2026-05-06 22:08 33.74233 -116.80542 42540 ft 434 kts 89°
2026-05-06 22:09 33.74149 -116.76928 42678 ft 435 kts 89°
2026-05-06 22:09 33.74063 -116.73274 42778 ft 436 kts 89°
2026-05-06 22:09 33.73977 -116.69610 42943 ft 437 kts 89°
2026-05-06 22:09 33.73889 -116.65952 43060 ft 439 kts 90°
2026-05-06 22:10 33.73800 -116.62329 43208 ft 440 kts 90°
2026-05-06 22:10 33.73710 -116.58600 43359 ft 441 kts 90°
2026-05-06 22:10 33.73620 -116.54924 43511 ft 442 kts 90°
2026-05-06 22:10 33.73526 -116.51228 43612 ft 443 kts 90°
2026-05-06 22:11 33.73433 -116.47568 43752 ft 444 kts 90°
2026-05-06 22:11 33.73337 -116.43852 43874 ft 445 kts 90°
2026-05-06 22:11 33.73240 -116.40113 44009 ft 446 kts 90°
2026-05-06 22:11 33.73143 -116.36384 44103 ft 448 kts 90°
2026-05-06 22:12 33.73042 -116.32636 44222 ft 448 kts 90°
2026-05-06 22:12 33.72941 -116.28890 44323 ft 449 kts 90°
2026-05-06 22:12 33.72839 -116.25137 44445 ft 450 kts 90°
2026-05-06 22:12 33.72737 -116.21388 44539 ft 451 kts 91°
2026-05-06 22:13 33.72524 -116.13833 44754 ft 452 kts 91°
2026-05-06 22:13 33.72440 -116.10107 44876 ft 452 kts 88°
2026-05-06 22:13 33.72778 -116.06364 44976 ft 450 kts 77°
2026-05-06 22:14 33.74627 -115.99166 44988 ft 454 kts 70°
2026-05-06 22:14 33.76626 -115.91897 44999 ft 460 kts 70°
2026-05-06 22:15 33.78672 -115.84558 45007 ft 466 kts 70°
2026-05-06 22:15 33.80717 -115.77131 45017 ft 471 kts 70°
2026-05-06 22:16 33.82797 -115.69599 45017 ft 476 kts 70°
2026-05-06 22:16 33.84876 -115.62028 45015 ft 482 kts 70°
2026-05-06 22:17 33.86985 -115.54338 45009 ft 486 kts 70°
2026-05-06 22:17 33.89115 -115.46544 45008 ft 491 kts 71°
2026-05-06 22:18 33.91252 -115.38703 45006 ft 496 kts 71°
2026-05-06 22:18 33.93392 -115.30832 45011 ft 499 kts 71°
2026-05-06 22:19 33.95555 -115.22852 45003 ft 500 kts 71°
2026-05-06 22:19 33.97706 -115.14896 45000 ft 499 kts 71°
2026-05-06 22:20 33.99848 -115.06944 44996 ft 499 kts 71°
2026-05-06 22:20 34.01976 -114.99025 44987 ft 500 kts 71°
2026-05-06 22:21 34.04113 -114.91050 44984 ft 500 kts 71°
2026-05-06 22:21 34.06249 -114.83052 44980 ft 501 kts 71°
2026-05-06 22:22 34.08383 -114.75043 44978 ft 501 kts 71°
2026-05-06 22:22 34.10529 -114.67038 44973 ft 501 kts 70°
2026-05-06 22:23 34.12794 -114.59072 44975 ft 502 kts 71°
2026-05-06 22:23 34.15038 -114.51076 44966 ft 503 kts 70°
2026-05-06 22:24 34.17291 -114.43114 44971 ft 503 kts 71°
2026-05-06 22:24 34.19531 -114.35110 44964 ft 504 kts 71°
2026-05-06 22:25 34.21788 -114.27068 44967 ft 505 kts 71°
2026-05-06 22:25 34.23649 -114.20391 44962 ft 506 kts 71°
2026-05-06 22:26 34.25900 -114.12319 44966 ft 507 kts 71°
2026-05-06 22:26 34.28146 -114.04228 44968 ft 507 kts 71°
2026-05-06 22:27 34.30383 -113.96154 44969 ft 508 kts 71°
2026-05-06 22:27 34.32628 -113.88022 44970 ft 509 kts 71°
2026-05-06 22:28 34.34870 -113.79879 44974 ft 509 kts 71°
2026-05-06 22:28 34.37035 -113.71717 44970 ft 510 kts 72°
2026-05-06 22:29 34.38110 -113.67654 44249 ft 511 kts 72°
2026-05-06 22:29 34.39217 -113.63544 43287 ft 510 kts 72°
2026-05-06 22:29 34.40295 -113.59511 42405 ft 510 kts 72°
2026-05-06 22:29 34.41367 -113.55444 41555 ft 493 kts 72°
2026-05-06 22:30 34.42395 -113.51540 40720 ft 485 kts 72°
2026-05-06 22:30 34.43435 -113.47623 39921 ft 489 kts 72°
2026-05-06 22:30 34.44480 -113.43686 39157 ft 490 kts 71°
2026-05-06 22:30 34.45513 -113.39755 38375 ft 490 kts 72°
2026-05-06 22:31 34.46542 -113.35838 37479 ft 488 kts 71°
2026-05-06 22:31 34.47574 -113.31916 36621 ft 486 kts 71°
2026-05-06 22:31 34.48586 -113.28071 35805 ft 484 kts 71°
2026-05-06 22:31 34.49603 -113.24195 35016 ft 483 kts 71°
2026-05-06 22:32 34.50616 -113.20314 34235 ft 482 kts 71°
2026-05-06 22:32 34.51626 -113.16449 33387 ft 480 kts 71°
2026-05-06 22:32 34.52640 -113.12580 32515 ft 482 kts 71°
2026-05-06 22:32 34.53658 -113.08679 31680 ft 490 kts 72°
2026-05-06 22:33 34.54690 -113.04703 30868 ft 495 kts 72°
2026-05-06 22:33 34.55728 -113.00706 30070 ft 497 kts 72°
2026-05-06 22:33 34.56767 -112.96707 29143 ft 497 kts 72°
2026-05-06 22:33 34.57802 -112.92715 28248 ft 496 kts 72°
2026-05-06 22:34 34.58831 -112.88734 27360 ft 490 kts 72°
2026-05-06 22:34 34.59830 -112.84868 26519 ft 481 kts 72°
2026-05-06 22:34 34.60815 -112.81043 25705 ft 465 kts 72°
2026-05-06 22:34 34.61761 -112.77368 24919 ft 448 kts 71°
2026-05-06 22:35 34.62677 -112.73815 24144 ft 433 kts 71°
2026-05-06 22:35 34.63561 -112.70376 23329 ft 419 kts 71°
2026-05-06 22:35 34.64411 -112.67057 22433 ft 407 kts 71°
2026-05-06 22:35 34.65244 -112.63810 21561 ft 398 kts 71°
2026-05-06 22:36 34.66058 -112.60631 20713 ft 394 kts 71°
2026-05-06 22:36 34.66860 -112.57496 19896 ft 391 kts 71°
2026-05-06 22:36 34.67665 -112.54348 19094 ft 389 kts 71°
2026-05-06 22:36 34.68464 -112.51204 18294 ft 387 kts 71°
2026-05-06 22:37 34.69257 -112.48095 17387 ft 384 kts 71°
2026-05-06 22:37 34.70042 -112.45009 16760 ft 378 kts 71°
2026-05-06 22:37 34.70819 -112.41955 16268 ft 376 kts 72°
2026-05-06 22:37 34.71593 -112.38905 15778 ft 379 kts 72°
2026-05-06 22:38 34.72368 -112.35844 15272 ft 378 kts 72°
2026-05-06 22:38 34.73143 -112.32791 14769 ft 377 kts 72°
2026-05-06 22:38 34.73912 -112.29749 14257 ft 376 kts 72°
2026-05-06 22:38 34.74676 -112.26726 13740 ft 371 kts 72°
2026-05-06 22:39 34.75244 -112.23770 13227 ft 356 kts 82°
2026-05-06 22:39 34.75313 -112.20777 12743 ft 343 kts 93°
2026-05-06 22:39 34.74951 -112.17990 12220 ft 335 kts 104°
2026-05-06 22:39 34.74189 -112.15353 11755 ft 327 kts 115°
2026-05-06 22:40 34.73080 -112.12988 11334 ft 318 kts 126°
2026-05-06 22:40 34.71747 -112.10869 10899 ft 313 kts 129°
2026-05-06 22:40 34.70443 -112.08780 10480 ft 310 kts 126°
2026-05-06 22:40 34.69499 -112.06435 10069 ft 308 kts 110°
2026-05-06 22:41 34.69102 -112.01362 9253 ft 300 kts 82°
2026-05-06 22:41 34.69638 -111.98934 8868 ft 298 kts 69°
2026-05-06 22:41 34.70626 -111.96716 8481 ft 298 kts 54°
2026-05-06 22:42 34.71995 -111.94832 8089 ft 296 kts 44°
2026-05-06 22:42 34.73409 -111.93105 7725 ft 282 kts 46°
2026-05-06 22:42 34.74749 -111.91414 7362 ft 271 kts 46°
2026-05-06 22:42 34.76000 -111.89849 7127 ft 239 kts 45°
2026-05-06 22:43 34.77083 -111.88529 6883 ft 211 kts 45°
2026-05-06 22:43 34.78006 -111.87356 6626 ft 179 kts 47°
2026-05-06 22:43 34.78866 -111.86315 6392 ft 171 kts 45°
2026-05-06 22:43 34.79691 -111.85265 6152 ft 171 kts 46°
2026-05-06 22:44 34.80530 -111.84246 6029 ft 167 kts 46°
2026-05-06 22:44 34.81384 -111.83223 5820 ft 163 kts 49°
2026-05-06 22:44 34.82096 -111.82260 5467 ft 146 kts 47°
2026-05-06 22:44 34.82807 -111.81395 5161 ft 148 kts 45°
2026-05-06 22:45 34.83535 -111.80500 4997 ft 154 kts 45°
2026-05-06 22:45 34.84257 -111.79589 4790 ft 142 kts 44°
2026-05-06 22:45 34.84827 -111.78882 4781 ft 56 kts 46°
2026-05-06 22:45 34.84963 -111.78713 4792 ft 5 kts 46°
2026-05-06 22:46 34.85003 -111.78683 4796 ft 13 kts 360°
2026-05-06 22:46 34.85000 -111.78784 4790 ft 19 kts 228°
2026-05-06 22:46 34.84922 -111.78891 4785 ft 11 kts 253°
2026-05-06 22:46 34.84927 -111.78912 4785 ft 0 kts 310°
2026-05-06 22:47 34.84933 -111.78914 4785 ft 2 kts 356°
2026-05-06 22:47 34.84973 -111.78889 4788 ft 9 kts 10°
2026-05-06 22:47 34.85014 -111.78929 4791 ft 5 kts 225°
2026-05-06 22:47 34.85005 -111.78928 4790 ft 0 kts 171°